Date String (YYYY-MM-DD hh:mm:ss) UTC,Instrument flags,absolute air pressure of the measurement (hPa),sample flow rate (lpm),inlet stack bypass flow (lpm),air temperature of the measurement (°C),ambient temperature measured by the external sensor (°C),aerosol sample conditioner tube jacket temperature (°C),OPC LED temperature (°C),internal box temperature (°C),relative humidity of the measurement (%),span deviation,mass concentration of particles derived from Lorenz-Mie calculation of OPC scattering (μg/m³),mass concentration of particles derived from Lorenz-Mie calculation of OPC scattering (μg/m³),mass concentration of particles derived from Lorenz-Mie calculation of OPC scattering (μg/m³)
DateTimeUTC,F1_M11,P_M11,Q1_M11,Q2_M11,T1_M11,T2_M11,T3_M11,T4_M11,T5_M11,U1_M11,ZSPAN_M11,X0_M11,X2_M11,X1_M11
2024-02-18 02:00:00,SystemResetWarning,0831.2,5.00,000.00,018.2,017.6,000.0,026.8,020.0,15.3,0000.0,0008.44,0005.23,0004.95
2024-02-18 02:01:00,SystemResetWarning,0831.2,5.00,000.00,018.2,017.6,000.0,026.8,020.0,15.4,0000.0,0008.79,0005.25,0004.96
2024-02-18 02:02:00,SystemResetWarning,0831.2,5.00,000.00,018.2,017.6,000.0,026.8,020.0,15.5,0000.0,0008.85,0005.26,0004.96
2024-02-18 02:03:00,SystemResetWarning,0831.2,5.00,000.00,018.2,017.6,000.0,026.8,020.0,15.5,0000.0,0009.56,0005.26,0004.96
2024-02-18 02:04:00,SystemResetWarning,0831.2,5.00,000.00,018.2,017.5,000.0,026.8,020.0,15.6,0000.0,0009.32,0005.26,0004.96
2024-02-18 02:05:00,SystemResetWarning,0831.2,5.00,000.00,018.2,017.5,000.0,026.8,020.0,15.7,0000.0,0009.30,0005.27,0004.97
2024-02-18 02:06:00,SystemResetWarning,0831.2,5.01,000.00,018.2,017.5,000.0,026.8,020.0,15.8,0000.0,0009.36,0005.27,0004.97
2024-02-18 02:07:00,SystemResetWarning,0831.2,5.00,000.00,018.2,017.5,000.0,026.8,020.0,15.8,0000.0,0009.60,0005.25,0004.97
2024-02-18 02:08:00,SystemResetWarning,0831.2,5.00,000.00,018.2,017.5,000.0,026.8,020.0,15.9,0000.3,0009.06,0005.23,0004.97
2024-02-18 02:09:00,SystemResetWarning,0831.2,5.00,000.00,018.2,017.7,000.0,026.9,020.1,16.0,0001.3,0008.95,0005.18,0004.96
2024-02-18 02:10:00,SystemResetWarning,0831.3,5.00,000.00,018.4,018.3,000.0,027.0,020.4,15.9,0001.3,0009.03,0005.21,0004.97
2024-02-18 02:11:00,SystemResetWarning,0831.2,5.00,000.00,018.6,018.9,000.0,027.0,020.8,15.7,0001.7,0009.05,0005.21,0004.97
2024-02-18 02:12:00,SystemResetWarning,0831.2,4.98,000.00,018.7,019.0,000.0,027.0,020.8,15.5,0002.0,0008.77,0005.21,0004.97
2024-02-18 02:13:00,SystemResetWarning,0831.2,5.00,000.00,018.7,018.8,000.0,026.9,020.5,15.5,0001.8,0009.06,0005.20,0004.97
2024-02-18 02:14:00,SystemResetWarning,0831.2,5.00,000.00,018.6,018.6,000.0,026.9,020.4,15.4,0001.3,0008.73,0005.22,0005.00
2024-02-18 02:15:00,SystemResetWarning,0831.1,5.01,000.00,018.6,018.5,000.0,026.9,020.3,15.4,0001.9,0009.10,0005.23,0005.01
2024-02-18 02:16:00,SystemResetWarning,0831.1,5.00,000.00,018.6,018.3,000.0,026.9,020.2,15.2,0001.7,0009.20,0005.23,0005.01
2024-02-18 02:17:00,SystemResetWarning,0831.1,4.99,000.00,018.5,018.2,000.0,026.9,020.2,15.1,0002.8,0009.30,0005.27,0005.03
2024-02-18 02:18:00,SystemResetWarning,0831.1,5.00,000.00,018.5,018.1,000.0,026.8,020.1,15.1,0001.4,0009.49,0005.29,0005.03
2024-02-18 02:19:00,SystemResetWarning,0831.1,4.99,000.00,018.5,018.0,000.0,026.8,020.1,15.2,0000.0,0009.88,0005.35,0005.05
2024-02-18 02:20:00,SystemResetWarning,0831.1,5.00,000.00,018.4,017.9,000.0,026.8,020.1,15.4,0000.0,0009.94,0005.37,0005.05
2024-02-18 02:21:00,SystemResetWarning,0831.1,5.00,000.00,018.4,017.8,000.0,026.8,020.0,15.4,0000.0,0009.90,0005.35,0005.05
2024-02-18 02:22:00,SystemResetWarning,0831.2,5.00,000.00,018.4,017.8,000.0,026.8,020.0,15.0,0000.0,0010.04,0005.35,0005.05
2024-02-18 02:23:00,SystemResetWarning,0831.1,5.01,000.00,018.4,017.8,000.0,026.8,020.0,14.8,0000.0,0010.35,0005.37,0005.05
2024-02-18 02:24:00,SystemResetWarning,0831.1,4.99,000.00,018.4,017.7,000.0,026.8,020.0,14.6,0000.0,0010.11,0005.39,0005.05
2024-02-18 02:25:00,SystemResetWarning,0831.1,5.00,000.00,018.3,017.7,000.0,026.8,020.0,14.5,0000.0,0009.87,0005.38,0005.02
2024-02-18 02:26:00,SystemResetWarning,0831.1,4.99,000.00,018.3,017.7,000.0,026.8,020.0,14.5,0000.0,0009.45,0005.36,0005.01
2024-02-18 02:27:00,SystemResetWarning,0831.1,5.00,000.00,018.3,017.7,000.0,026.8,020.0,14.4,0000.0,0009.37,0005.37,0005.01
2024-02-18 02:28:00,SystemResetWarning,0831.1,5.01,000.00,018.3,017.7,000.0,026.8,020.0,14.4,0000.0,0009.20,0005.36,0005.01
2024-02-18 02:29:00,SystemResetWarning,0831.1,5.01,000.00,018.3,017.7,000.0,026.9,020.0,14.5,0000.0,0008.70,0005.37,0005.03
2024-02-18 02:30:00,SystemResetWarning,0831.1,5.00,000.00,018.3,017.6,000.0,026.9,020.0,14.5,0000.0,0008.49,0005.32,0005.01
2024-02-18 02:31:00,SystemResetWarning,0831.1,5.00,000.00,018.3,017.6,000.0,026.9,020.0,14.4,0000.0,0009.44,0005.31,0005.01
2024-02-18 02:32:00,SystemResetWarning,0831.1,5.00,000.00,018.3,017.6,000.0,026.8,020.0,14.4,0000.0,0009.51,0005.30,0005.00
2024-02-18 02:33:00,SystemResetWarning,0831.1,5.00,000.00,018.3,017.6,000.0,026.9,020.0,14.6,0000.0,0009.33,0005.26,0004.97
2024-02-18 02:34:00,SystemResetWarning,0831.0,5.00,000.00,018.3,017.6,000.0,026.9,020.0,14.5,0000.1,0008.99,0005.23,0004.92
2024-02-18 02:35:00,SystemResetWarning,0831.1,4.99,000.00,018.2,017.6,000.0,026.9,020.0,14.6,0003.1,0008.92,0005.20,0004.90
2024-02-18 02:36:00,SystemResetWarning,0831.1,4.99,000.00,018.2,017.6,000.0,026.9,020.0,14.8,0003.4,0008.80,0005.17,0004.88
2024-02-18 02:37:00,SystemResetWarning,0831.1,5.00,000.00,018.2,017.6,000.0,026.9,020.0,14.9,0000.0,0008.81,0005.15,0004.87
2024-02-18 02:38:00,SystemResetWarning,0831.0,5.02,000.00,018.2,017.6,000.0,026.8,020.0,14.9,0000.0,0009.03,0005.12,0004.85
2024-02-18 02:39:00,SystemResetWarning,0831.0,4.99,000.00,018.2,017.6,000.0,026.8,020.0,14.9,0000.0,0009.06,0005.10,0004.80
2024-02-18 02:40:00,SystemResetWarning,0831.0,4.99,000.00,018.2,017.6,000.0,026.8,020.0,15.1,0000.0,0009.12,0005.06,0004.73
2024-02-18 02:41:00,SystemResetWarning,0831.1,5.00,000.00,018.2,017.5,000.0,026.8,020.0,15.2,0000.0,0009.08,0005.04,0004.71
2024-02-18 02:42:00,SystemResetWarning,0831.0,5.00,000.00,018.2,017.5,000.0,026.8,020.0,15.3,0000.0,0008.08,0005.01,0004.70
2024-02-18 02:43:00,SystemResetWarning,0831.0,5.01,000.00,018.2,017.5,000.0,026.9,020.0,15.5,0000.0,0008.22,0005.01,0004.68
2024-02-18 02:44:00,SystemResetWarning,0831.0,5.00,000.00,018.3,017.8,000.0,026.9,020.2,15.4,0000.0,0008.33,0005.03,0004.69
2024-02-18 02:45:00,SystemResetWarning,0831.1,4.99,000.00,018.4,018.6,000.0,027.0,020.6,15.3,0000.0,0008.37,0005.06,0004.70
2024-02-18 02:46:00,SystemResetWarning,0831.1,4.99,000.00,018.7,019.1,000.0,027.0,020.9,14.9,0000.0,0008.37,0005.03,0004.70
2024-02-18 02:47:00,SystemResetWarning,0831.1,4.99,000.00,018.7,019.0,000.0,027.0,020.7,14.6,0000.0,0008.42,0005.03,0004.71
2024-02-18 02:48:00,SystemResetWarning,0831.0,4.99,000.00,018.7,018.8,000.0,026.9,020.5,14.7,0000.1,0008.83,0005.03,0004.71
2024-02-18 02:49:00,SystemResetWarning,0831.0,5.00,000.00,018.6,018.6,000.0,026.9,020.4,14.8,0000.4,0008.67,0005.05,0004.72
2024-02-18 02:50:00,SystemResetWarning,0830.9,5.00,000.00,018.6,018.5,000.0,026.9,020.3,14.7,0000.5,0008.58,0005.06,0004.75
2024-02-18 02:51:00,SystemResetWarning,0830.9,5.01,000.00,018.6,018.3,000.0,026.9,020.2,14.6,0001.0,0008.69,0005.07,0004.77
2024-02-18 02:52:00,SystemResetWarning,0830.9,5.00,000.00,018.5,018.2,000.0,026.9,020.2,14.6,0000.8,0008.67,0005.08,0004.78
2024-02-18 02:53:00,SystemResetWarning,0830.9,5.00,000.00,018.5,018.1,000.0,026.9,020.2,14.7,0002.1,0008.62,0005.08,0004.79
2024-02-18 02:54:00,SystemResetWarning,0830.9,5.01,000.00,018.5,018.0,000.0,026.9,020.1,14.7,0002.0,0008.28,0005.07,0004.79
2024-02-18 02:55:00,SystemResetWarning,0830.9,5.00,000.00,018.5,017.9,000.0,026.9,020.1,14.7,0001.0,0008.16,0005.04,0004.78
2024-02-18 02:56:00,SystemResetWarning,0831.0,5.00,000.00,018.5,017.9,000.0,026.9,020.1,14.7,0002.8,0008.05,0005.01,0004.77
2024-02-18 02:57:00,SystemResetWarning,0830.9,5.00,000.00,018.4,017.8,000.0,026.9,020.1,14.7,0003.1,0007.93,0005.00,0004.77
2024-02-18 02:58:00,SystemResetWarning,0830.9,4.99,000.00,018.4,017.8,000.0,026.9,020.0,14.7,0003.6,0007.84,0004.98,0004.77
2024-02-18 02:59:00,SystemResetWarning,0830.9,4.99,000.00,018.4,017.8,000.0,026.9,020.0,14.6,0003.9,0007.62,0004.97,0004.75
